Weather History for South Bend, IN

Change the Weather History Date:

Friday, December 7, 2012

  Actual Average Record
Temperature  
Mean Temperature 44 °F 31 °F  
Max Temperature 46 °F 38 °F 61 °F (1946)
Min Temperature 41 °F 25 °F 0 °F (2005)
Degree Days  
Heating Degree Days 21 34  
Month to date heating degree days 132 228  
Since 1 July heating degree days 1453 1497  
Cooling Degree Days 0 0  
Month to date cooling degree days 0 0  
Year to date cooling degree days 1115 773  
Moisture  
Dew Point 41 °F    
Average Humidity 90    
Maximum Humidity 100    
Minimum Humidity 79    
Precipitation  
Precipitation 0.10 in 0.09 in 2.14 in (1966)
Month to date precipitation 0.98 0.64  
Year to date precipitation 32.24 36.03  
Snow  
Snow 0.00 in 0.50 in 3.60 in (1968)
Month to date snowfall 0.0 2.9  
Since 1 July snowfall T 8.1  
Snow Depth 0.00 in    
Sea Level Pressure  
Sea Level Pressure 29.93 in    
Wind  
Wind Speed 3 mph (NNE)    
Max Wind Speed 12 mph    
Max Gust Speed 13 mph    
Visibility 4 miles    
Events Rain    
T = Trace of Precipitation, MM = Missing Value Source: NWS Daily Summary

Daily Weather History Graph

Daily Weather History Graph

Search for Another Location

Airport:

Trip Planner

Search our weather history database for the weather conditions in past years. The results will help you decide how hot, cold, wet, or windy it might be!

Date:

Astronomy

Dec. 07, 2012 Rise Set
Actual Time 7:59 AM EST 5:14 PM EST
Civil Twilight 7:27 AM EST 5:45 PM EST
Nautical Twilight 6:53 AM EST 6:20 PM EST
Astronomical Twilight 6:19 AM EST 6:54 PM EST
Moon 1:13 AM EST (12/7) 1:15 PM EST (12/7)
Length of Visible Light 10h 18m
Length of Day
9h 15m
Last Quarter, 39% of the Moon is Illuminated
Dec 7
Last Quarter
Dec 13
New
Dec 20
First Quarter
Dec 28
Full
Jan 4
Last Quarter

Hourly Weather History & Observations

Time (EST) Temp. Windchill Dew Point Humidity Pressure Visibility Wind Dir Wind Speed Gust Speed Precip Events Conditions
12:54 AM 41.0 °F - 36.0 °F 82% 29.97 in 10.0 mi Calm Calm - N/A   Overcast
1:54 AM 41.0 °F 38.0 °F 36.0 °F 82% 29.96 in 9.0 mi SSW 4.6 mph - N/A   Overcast
2:54 AM 41.0 °F 38.0 °F 36.0 °F 82% 29.95 in 10.0 mi SSW 4.6 mph - N/A   Mostly Cloudy
3:54 AM 42.1 °F 39.2 °F 37.0 °F 82% 29.95 in 10.0 mi SW 4.6 mph - N/A   Overcast
4:54 AM 42.1 °F 37.7 °F 37.0 °F 82% 29.95 in 9.0 mi WSW 6.9 mph - 0.00 in Rain Light Rain
5:54 AM 41.0 °F - 37.9 °F 89% 29.95 in 7.0 mi Calm Calm - 0.00 in Rain Light Rain
6:08 AM 42.8 °F - 37.4 °F 81% 29.93 in 7.0 mi Calm Calm - 0.00 in Rain Light Rain
6:32 AM 41.0 °F - 37.4 °F 87% 29.93 in 7.0 mi Calm Calm - 0.00 in Rain Light Rain
6:40 AM 41.0 °F - 37.4 °F 87% 29.94 in 7.0 mi Calm Calm - 0.00 in Rain Light Rain
6:49 AM 41.0 °F 39.0 °F 37.4 °F 87% 29.94 in 5.0 mi SSW 3.5 mph - 0.00 in Rain Light Rain
6:54 AM 41.0 °F 39.0 °F 39.0 °F 93% 29.96 in 5.0 mi South 3.5 mph - 0.00 in Rain Light Rain
7:54 AM 41.0 °F 39.0 °F 39.0 °F 93% 29.97 in 4.0 mi South 3.5 mph - 0.00 in Rain Light Rain
8:25 AM 41.0 °F 38.0 °F 39.2 °F 93% 29.95 in 2.0 mi SSW 4.6 mph - 0.01 in Rain Light Rain
8:54 AM 41.0 °F 36.4 °F 39.0 °F 93% 29.98 in 2.0 mi SW 6.9 mph - 0.01 in Rain Light Rain
9:54 AM 42.1 °F 40.2 °F 41.0 °F 96% 29.98 in 1.5 mi SW 3.5 mph - 0.01 in   Overcast
10:01 AM 42.8 °F 41.1 °F 41.0 °F 93% 29.96 in 2.0 mi SW 3.5 mph - 0.00 in Rain Light Rain
10:54 AM 43.0 °F - 41.0 °F 93% 29.98 in 2.0 mi Calm Calm - 0.00 in Rain Light Rain
11:54 AM 43.0 °F - 41.0 °F 93% 29.96 in 2.0 mi Calm Calm - 0.00 in   Overcast
12:49 PM 44.6 °F - 44.6 °F 100% 29.92 in 3.0 mi Calm Calm - N/A   Overcast
12:51 PM 44.6 °F - 44.6 °F 100% 29.92 in 2.0 mi Calm Calm - N/A   Overcast
12:54 PM 44.1 °F - 44.1 °F 100% 29.93 in 2.0 mi Calm Calm - N/A   Overcast
1:08 PM 44.6 °F - 44.6 °F 100% 29.91 in 2.0 mi Calm Calm - N/A   Overcast
1:54 PM 45.0 °F - 44.1 °F 97% 29.92 in 4.0 mi Calm Calm - N/A   Overcast
2:54 PM 45.0 °F - 43.0 °F 93% 29.92 in 5.0 mi Calm Calm - 0.00 in   Overcast
3:54 PM 45.0 °F 42.6 °F 44.1 °F 97% 29.92 in 4.0 mi North 4.6 mph - N/A   Overcast
4:35 PM 44.6 °F 41.4 °F 42.8 °F 93% 29.91 in 2.0 mi North 5.8 mph - N/A   Overcast
4:52 PM 44.6 °F 42.2 °F 42.8 °F 93% 29.91 in 1.8 mi North 4.6 mph - N/A   Overcast
4:54 PM 44.1 °F 40.8 °F 43.0 °F 96% 29.92 in 1.8 mi North 5.8 mph - N/A   Overcast
5:41 PM 44.6 °F - 42.8 °F 93% 29.91 in 1.5 mi Calm Calm - N/A   Overcast
5:54 PM 44.1 °F 42.5 °F 42.1 °F 93% 29.92 in 1.5 mi ENE 3.5 mph - N/A   Overcast
6:31 PM 44.6 °F 43.1 °F 42.8 °F 93% 29.90 in 1.5 mi NE 3.5 mph - N/A   Overcast
6:54 PM 44.1 °F 42.5 °F 42.1 °F 93% 29.91 in 1.5 mi NE 3.5 mph - N/A   Overcast
7:07 PM 44.6 °F 42.2 °F 42.8 °F 93% 29.89 in 1.5 mi NE 4.6 mph - N/A   Overcast
7:54 PM 44.6 °F 42.2 °F 42.8 °F 93% 29.89 in 1.5 mi NE 4.6 mph - N/A   Overcast
8:01 PM 44.6 °F 43.1 °F 42.8 °F 93% 29.89 in 2.0 mi ENE 3.5 mph - N/A   Overcast
8:43 PM 44.6 °F 43.1 °F 44.6 °F 100% 29.88 in 3.0 mi ENE 3.5 mph - 0.00 in   Overcast
8:54 PM 44.1 °F 42.5 °F 44.1 °F 100% 29.90 in 4.0 mi ENE 3.5 mph - 0.00 in Rain Light Rain
9:54 PM 44.1 °F - 44.1 °F 100% 29.89 in 4.0 mi Calm Calm - 0.02 in Rain Light Rain
10:39 PM 42.8 °F - 42.8 °F 100% 29.87 in 4.0 mi Calm Calm - 0.01 in Rain Light Rain
10:54 PM 43.0 °F - 43.0 °F 100% 29.88 in 4.0 mi Calm Calm - 0.02 in Rain Light Rain
11:35 PM 42.8 °F 40.1 °F - N/A% 29.87 in 2.5 mi North 4.6 mph - 0.03 in Rain Rain
11:47 PM 42.8 °F - - N/A% 29.87 in 3.0 mi Calm Calm - 0.04 in Rain Light Rain
11:54 PM 43.0 °F 41.3 °F - N/A% 29.88 in 3.0 mi North 3.5 mph - 0.04 in Rain Light Rain